Weather History for Oak Ridge, TN

Change the Weather History Date:

Thursday, April 17, 2014

  Actual Average (KTYS) Record (KTYS)
Temperature  
Mean Temperature 52 °F 59 °F  
Max Temperature 69 °F 71 °F 90 °F (1896)
Min Temperature 35 °F 48 °F 24 °F (1875)
Degree Days  
Heating Degree Days 14 7  
Month to date heating degree days 151  
Since 1 July heating degree days 3508  
Cooling Degree Days 0 1  
Month to date cooling degree days 15  
Year to date cooling degree days 20  
Growing Degree Days 2 (Base 50)    
Moisture  
Dew Point 32 °F    
Average Humidity 52    
Maximum Humidity 89    
Minimum Humidity 21    
Precipitation  
Precipitation 0.00 in 0.13 in 1.06 in (2003)
Month to date precipitation 2.24  
Year to date precipitation 15.16  
Snow  
Snow 0.00 in 0.00 in - ()
Month to date snowfall 0.4  
Since 1 July snowfall 6.4  
Snow Depth -    
Sea Level Pressure  
Sea Level Pressure 30.36 in    
Wind  
Wind Speed 1 mph (East)    
Max Wind Speed 7 mph    
Max Gust Speed -    
Visibility 10 miles    
Events      
T = Trace of Precipitation, MM = Missing Value Source: NWS Daily Summary

Daily Weather History Graph

Daily Weather History Graph

Search for Another Location

Airport:

Trip Planner

Search our weather history database for the weather conditions in past years. The results will help you decide how hot, cold, wet, or windy it might be!

Date:

Astronomy

Apr. 17, 2014 Rise Set
Actual Time 7:01 AM EDT 8:12 PM EDT
Civil Twilight 6:34 AM EDT 8:38 PM EDT
Nautical Twilight 6:03 AM EDT 9:10 PM EDT
Astronomical Twilight 5:30 AM EDT 9:43 PM EDT
Moon 10:53 PM EDT (4/17) 8:35 AM EDT (4/17)
Length of Visible Light 14h 04m
Length of Day
13h 11m
Waning Gibbous, 94% of the Moon is Illuminated
Apr 17
Waning Gibbous
Apr 22
Last Quarter
Apr 29
New
May 6
First Quarter
May 14
Full

Hourly Weather History & Observations

Time (EDT) Temp. Windchill Dew Point Humidity Pressure Visibility Wind Dir Wind Speed Gust Speed Precip Events Conditions
12:53 AM 43.0 °F - 33.1 °F 68% 30.32 in 10.0 mi Calm Calm - N/A   Clear
1:53 AM 41.0 °F - 33.1 °F 73% 30.34 in 10.0 mi Calm Calm - N/A   Clear
2:53 AM 39.9 °F - 32.0 °F 73% 30.34 in 10.0 mi Calm Calm - N/A   Clear
3:53 AM 39.0 °F - 32.0 °F 76% 30.35 in 10.0 mi Calm Calm - N/A   Clear
4:53 AM 37.9 °F - 32.0 °F 79% 30.37 in 10.0 mi Calm Calm - N/A   Clear
5:53 AM 36.0 °F - 33.1 °F 89% 30.38 in 10.0 mi Calm Calm - N/A   Clear
6:53 AM 35.1 °F - 32.0 °F 89% 30.40 in 10.0 mi Calm Calm - N/A   Clear
7:53 AM 36.0 °F 33.3 °F 33.1 °F 89% 30.42 in 10.0 mi East 3.5 mph - N/A   Clear
8:53 AM 43.0 °F - 34.0 °F 71% 30.43 in 10.0 mi Calm Calm - N/A   Clear
9:53 AM 50.0 °F - 30.0 °F 46% 30.43 in 10.0 mi Variable 3.5 mph - N/A   Clear
10:53 AM 54.0 °F - 28.9 °F 38% 30.44 in 10.0 mi Variable 3.5 mph - N/A   Clear
11:53 AM 57.9 °F - 32.0 °F 37% 30.44 in 10.0 mi NNW 4.6 mph - N/A   Clear
1:53 PM 63.0 °F - 30.0 °F 29% 30.40 in 10.0 mi Variable 3.5 mph - N/A   Clear
2:53 PM 66.0 °F - 27.0 °F 23% 30.37 in 10.0 mi Calm Calm - N/A   Clear
3:53 PM 66.9 °F - 28.9 °F 24% 30.32 in 10.0 mi Calm Calm - N/A   Clear
4:53 PM 68.0 °F - 26.1 °F 21% 30.29 in 10.0 mi Variable 6.9 mph - N/A   Clear
5:53 PM 68.0 °F - 28.9 °F 23% 30.32 in 10.0 mi South 3.5 mph - N/A   Clear
6:53 PM 68.0 °F - 28.0 °F 22% 30.30 in 10.0 mi Calm Calm - N/A   Clear
7:53 PM 64.9 °F - 30.9 °F 28% 30.30 in 10.0 mi Calm Calm - N/A   Clear
8:53 PM 59.0 °F - 35.1 °F 41% 30.32 in 10.0 mi Calm Calm - N/A   Clear
9:53 PM 55.9 °F - 37.0 °F 49% 30.32 in 10.0 mi Calm Calm - N/A   Clear
10:53 PM 52.0 °F - 39.0 °F 61% 30.33 in 10.0 mi Calm Calm - N/A   Clear
11:53 PM 53.1 °F - 37.9 °F 57% 30.32 in 10.0 mi Calm Calm - N/A   Clear